Zurück zum Katalog

Norby-3

AktivWissenschaftSSO
NORAD 61761·PAYLOAD·🇷🇺 Russia

Gestartet Nov 4, 2024 von Vostochny Cosmodrome

Loading…

Nächste Überflüge (nächste 24 Stunden)

TLE

AktuellSource: Space-Track

Epoche: Sep 14, 2026, 15:38 UTC

1 61761U 24199AC  26257.65197448  .00050346  00000-0  52118-3 0  9990
2 61761  97.2722 136.5463 0001938 319.9328  40.1789 15.64571052151569

Verfolge Norby-3 in Echtzeit mit AllMySat

Download on the App Store